[[{"header":{"parameterUnit":"m.s-1","parameterCategory":1,"la1":30.2991,"la2":30.254,"lo1":-89.0895,"lo2":-89.0444,"dy":0.0017,"dx":0.0017,"nx":28,"ny":28,"refTime":"2025-01-20T09:00:00:Z","depth":0,"parameterNumber":2,"parameterNumberName":"U-component_of_WINDS"},"data":[0,0,0,0,0,0,0,0,0,0,0,0,0,0,0,0,0,0,0,0,0,0,0,0,0,0,0,0,0,0,0,0,0,0,0,0,0,0,0,0,0,0,0,0,0,0,0,0,0,0,0,0,0,0,0,0,0,0,-2.4832,-2.4834,0,-2.4977,-2.4978,-2.498,-2.4959,-2.4957,-2.4954,-2.4952,-2.5101,-2.5107,-2.5113,0,0,0,0,0,0,0,0,0,0,0,0,0,-2.4538,-2.4544,-2.4832,-2.4834,-2.4836,-2.4976,-2.4978,-2.498,-2.496,-2.4957,-2.4954,-2.4951,-2.5099,-2.5106,-2.5113,0,0,0,0,0,0,0,0,0,0,0,0,0,-2.4673,-2.4546,-2.4832,-2.4842,-2.4845,-2.4976,-2.4978,-2.4981,-2.496,-2.4956,-2.4953,-2.4949,-2.5096,-2.5105,-2.5114,-2.5244,0,0,-2.5143,-2.5147,0,0,0,0,0,0,0,0,-2.4665,-2.4683,-2.4839,-2.4842,-2.4845,-2.4946,-2.4929,-2.5069,-2.4961,-2.4916,-2.4952,-2.4948,-2.5052,-2.5065,-2.51,-2.5251,-2.5258,-2.5144,-2.5149,-2.5153,-2.5156,0,0,0,0,0,0,0,-2.4656,-2.4677,-2.4889,-2.4841,-2.4845,-2.484,-2.4855,-2.4956,-2.5003,-2.492,-2.4919,-2.4936,-2.5053,-2.5091,-2.5103,-2.526,-2.5143,-2.5152,-2.5157,-2.5161,-2.5525,-2.5529,0,0,0,0,0,0,-2.4644,-2.467,-2.4885,-2.4894,-2.4744,-2.4848,-2.4865,-2.4917,-2.5002,-2.5011,-2.4939,-2.4935,-2.5077,-2.5092,-2.5108,-2.5267,-2.5153,-2.5162,-2.5167,-2.5521,-2.5526,-2.553,0,0,0,0,0,0,-2.4637,-2.4663,-2.4879,-2.4781,-2.4808,-2.4857,-2.4916,-2.4922,-2.496,-2.5016,-2.5024,-2.4969,-2.5075,-2.5095,-2.5211,-2.5272,-2.5166,-2.5175,-2.5516,-2.5522,-2.5528,-2.5585,0,0,0,0,0,0,-2.4629,-2.4661,-2.4711,-2.4783,-2.4814,-2.4979,-2.492,-2.4927,-2.4976,-2.4972,-2.5047,-2.5056,-2.5073,-2.5197,-2.522,-2.5283,-2.5182,-2.5511,-2.5519,-2.5526,-2.5578,-2.5592,-2.5604,0,0,0,0,0,-2.4619,-2.4722,-2.4714,-2.474,-2.4878,-2.4983,-2.5001,-2.5019,-2.4981,-2.5032,-2.5068,-2.5053,-2.5261,-2.5209,-2.5235,-2.5301,-2.5507,-2.5517,-2.5525,-2.5572,-2.5589,-2.5604,0,0,0,0,0,0,-2.4657,-2.4731,-2.4724,-2.4853,-2.4912,-2.4979,-2.5044,-2.5037,-2.5108,-2.5101,-2.512,-2.5137,-2.5254,-2.5289,-2.523,-2.5431,-2.5379,-2.5393,-2.5405,-2.5422,-2.5435,-2.5425,-2.519,0,0,0,0,0,-2.468,-2.476,-2.482,-2.4928,-2.4958,-2.4996,-2.5042,-2.5051,-2.5113,-2.5138,-2.5182,-2.5243,-2.5321,-2.5373,-2.5449,-2.5581,-2.5598,-2.5639,-2.5653,-2.5663,-2.5677,-2.5749,-2.5769,-2.556,-2.556,-2.556,0,0,-2.473,-2.478,-2.4829,-2.4937,-2.4984,-2.5066,-2.5017,-2.5106,-2.5167,-2.5151,-2.5264,-2.5298,-2.5366,-2.5491,-2.5548,-2.5523,-2.5737,-2.5675,-2.5683,-2.5691,-2.5761,-2.5781,-2.5798,-2.5567,-2.5565,-2.5564,0,0,-2.4863,-2.4908,-2.5003,-2.505,-2.5121,-2.5145,-2.5168,-2.5237,-2.5259,-2.5371,-2.5361,-2.5433,-2.5568,-2.5618,-2.5661,-2.5809,-2.5799,-2.5833,-2.5904,-2.5974,-2.5991,-2.6005,-2.606,-2.6079,-2.5845,-2.5845,-2.5846,0,-2.4916,-2.5039,-2.5053,-2.5143,-2.5191,-2.5179,-2.5276,-2.5321,-2.5413,-2.5446,-2.5416,-2.5585,-2.5631,-2.5767,-2.5803,-2.5838,-2.5864,-2.5826,-2.5987,-2.6002,-2.6016,-2.6068,-2.6088,-2.5849,-2.5849,-2.5848,-2.5848,0,-2.5101,-2.5186,-2.5254,-2.5343,-2.5398,-2.549,-2.5519,-2.5573,-2.5576,-2.5603,-2.5717,-2.577,-2.5856,-2.5889,-2.5893,-2.6025,-2.6008,-2.5982,-2.5931,-2.6039,-2.6089,-2.6108,-2.5855,-2.5853,-2.5852,-2.5851,0,0,-2.5265,-2.5359,-2.5384,-2.5424,-2.55,-2.5566,-2.5657,-2.5741,-2.5787,-2.5849,-2.5927,-2.6041,-2.6017,-2.6066,-2.6075,-2.6136,-2.6251,-2.6103,-2.6105,-2.613,-2.6402,-2.6422,-2.6445,-2.6243,-2.6247,-2.625,-2.6396,0,-2.5406,-2.5568,-2.5583,-2.5729,-2.5808,-2.5796,-2.5876,-2.5931,-2.5958,-2.6028,-2.6058,-2.6139,-2.6101,-2.613,-2.619,-2.6225,-2.6307,-2.6214,-2.6317,-2.632,-2.6303,-2.647,-2.6493,-2.6628,-2.6415,-2.6419,-2.6421,0,-2.5594,-2.5662,-2.5815,-2.5879,-2.5913,-2.5984,-2.6062,-2.6129,-2.619,-2.6205,-2.6258,-2.6259,-2.6352,-2.6294,-2.6424,-2.6361,-2.6403,-2.6426,-2.6431,-2.6444,-2.6379,-2.6489,-2.6672,-2.6693,-2.6451,-2.6449,-2.6447,0,-2.57,-2.5829,-2.5938,-2.5972,-2.6049,-2.61,-2.6134,-2.6192,-2.6241,-2.6308,-2.634,-2.6417,-2.646,-2.6519,-2.654,-2.6495,-2.6669,-2.6612,-2.6685,-2.6684,-2.6724,-2.6722,-2.6918,-2.6747,-2.6747,-2.6747,-2.6746,0,-2.5858,-2.5953,-2.5987,-2.6054,-2.6159,-2.6175,-2.6278,-2.631,-2.6361,-2.6434,-2.6427,-2.6496,-2.6518,-2.659,-2.6606,-2.6711,-2.673,-2.6745,-2.6749,-2.6747,-2.6746,-2.6777,-2.6769,-2.6752,-2.6751,-2.675,-2.6749,0,-2.5996,-2.6023,-2.6141,-2.6203,-2.6221,-2.6296,-2.6349,-2.6414,-2.6438,-2.653,-2.6552,-2.6591,-2.6675,-2.6701,-2.6802,-2.6813,-2.6937,-2.6931,-2.6916,-2.6917,-2.6989,-2.6982,-2.7214,-2.7246,-2.7052,-2.7054,-2.7056,0,-2.6097,-2.6169,-2.6239,-2.6287,-2.6323,-2.6401,-2.6451,-2.6467,-2.6519,-2.6594,-2.6649,-2.6732,-2.68,-2.6934,-2.6972,-2.7049,-2.7046,-2.7121,-2.7058,-2.7054,-2.7049,-2.7046,-2.7053,-2.7135,-2.7137,-2.7138,-2.714,0,-2.6273,-2.6282,-2.6353,-2.643,-2.6489,-2.655,-2.6608,-2.6648,-2.6673,-2.6731,-2.6817,-2.6869,-2.6972,-2.7054,-2.7132,-2.7167,-2.7159,-2.7159,-2.718,-2.7181,-2.717,-2.7178,-2.6952,-2.7154,-2.7153,-2.7152,-2.7151,-2.715,-2.6397,-2.646,-2.6519,-2.6599,-2.6644,-2.6699,-2.6762,-2.6794,-2.6866,-2.6951,-2.6955,-2.7049,-2.7106,-2.721,-2.7249,-2.7321,-2.73,-2.733,-2.7338,-2.7346,-2.7352,-2.7156,-2.7335,-2.7335,-2.7335,-2.7334,-2.7334,0,-2.6574,-2.661,-2.6683,-2.6765,-2.6828,-2.6811,-2.6875,-2.6928,-2.701,-2.7065,-2.7131,-2.7229,-2.7309,-2.7351,-2.743,-2.748,-2.7478,-2.75,-2.7498,-2.7506,-2.7367,-2.7342,-2.7501,-2.7501,-2.7501,-2.75,-2.75,-2.75,-2.6673,-2.6781,-2.6796,-2.6926,-2.6961,-2.7052,-2.709,-2.714,-2.7183,-2.7293,-2.7359,-2.7385,-2.7435,-2.7517,-2.7589,-2.7599,-2.763,-2.7655,-2.7663,-2.7533,-2.7516,-2.75,-2.7476,-2.7661,-2.7661,-2.7797,-2.7798,-2.7799]},{"header":{"parameterUnit":"m.s-1","parameterCategory":1,"la1":30.2991,"la2":30.254,"lo1":-89.0895,"lo2":-89.0444,"dy":0.0017,"dx":0.0017,"nx":28,"ny":28,"refTime":"2025-01-20T09:00:00:Z","depth":0,"parameterNumber":3,"parameterNumberName":"V-component_of_WINDS"},"data":[0,0,0,0,0,0,0,0,0,0,0,0,0,0,0,0,0,0,0,0,0,0,0,0,0,0,0,0,0,0,0,0,0,0,0,0,0,0,0,0,0,0,0,0,0,0,0,0,0,0,0,0,0,0,0,0,0,0,-8.4558,-8.456,0,-8.4746,-8.4748,-8.475,-8.4666,-8.4661,-8.4656,-8.4652,-8.4837,-8.4846,-8.4855,0,0,0,0,0,0,0,0,0,0,0,0,0,-8.4118,-8.4127,-8.4558,-8.456,-8.4563,-8.4746,-8.4748,-8.4751,-8.4666,-8.4661,-8.4655,-8.465,-8.4834,-8.4845,-8.4856,0,0,0,0,0,0,0,0,0,0,0,0,0,-8.4308,-8.4129,-8.4557,-8.4543,-8.4543,-8.4745,-8.4748,-8.4751,-8.4668,-8.4661,-8.4654,-8.4647,-8.483,-8.4844,-8.4858,-8.5083,0,0,-8.49,-8.4906,0,0,0,0,0,0,0,0,-8.4297,-8.4324,-8.4543,-8.4544,-8.4545,-8.4675,-8.4661,-8.4862,-8.4669,-8.462,-8.4652,-8.4644,-8.4788,-8.4805,-8.4856,-8.5091,-8.5099,-8.4901,-8.491,-8.4916,-8.492,0,0,0,0,0,0,0,-8.4284,-8.4315,-8.4632,-8.4546,-8.4548,-8.4524,-8.4543,-8.4699,-8.4741,-8.4624,-8.4618,-8.4642,-8.4788,-8.4842,-8.4859,-8.5102,-8.4901,-8.4913,-8.4922,-8.4927,-8.553,-8.5537,0,0,0,0,0,0,-8.4272,-8.4305,-8.4626,-8.4638,-8.4402,-8.4538,-8.4559,-8.464,-8.4739,-8.4747,-8.4648,-8.4637,-8.4822,-8.4843,-8.4866,-8.5135,-8.4916,-8.4929,-8.4937,-8.5522,-8.5531,-8.554,0,0,0,0,0,0,-8.4263,-8.4302,-8.4618,-8.447,-8.4509,-8.4553,-8.4645,-8.4648,-8.4703,-8.4757,-8.4763,-8.4697,-8.4818,-8.4846,-8.5029,-8.514,-8.4935,-8.4947,-8.5513,-8.5525,-8.5536,-8.5677,0,0,0,0,0,0,-8.4251,-8.4299,-8.4387,-8.4473,-8.4517,-8.4782,-8.4651,-8.4657,-8.4728,-8.4716,-8.4805,-8.4812,-8.4814,-8.5009,-8.5043,-8.5156,-8.4958,-8.5503,-8.5518,-8.5532,-8.5662,-8.5691,-8.5717,0,0,0,0,0,-8.4235,-8.4418,-8.4392,-8.4431,-8.4628,-8.4789,-8.4814,-8.4814,-8.4737,-8.4825,-8.4859,-8.481,-8.5123,-8.5029,-8.5066,-8.5185,-8.5496,-8.5514,-8.5531,-8.565,-8.5686,-8.5716,0,0,0,0,0,0,-8.4342,-8.4429,-8.4401,-8.4617,-8.4697,-8.4774,-8.4885,-8.4852,-8.4953,-8.4938,-8.4932,-8.4952,-8.5142,-8.5181,-8.5075,-8.5407,-8.5297,-8.5323,-8.5375,-8.5409,-8.5436,-8.5423,-8.497,0,0,0,0,0,-8.4391,-8.4517,-8.4584,-8.4768,-8.481,-8.4841,-8.4911,-8.4904,-8.4985,-8.5018,-8.5066,-8.5144,-8.526,-8.5336,-8.5446,-8.5667,-8.5684,-8.5766,-8.5793,-8.5815,-8.5838,-8.5957,-8.5994,-8.5596,-8.5596,-8.5596,0,0,-8.4492,-8.4555,-8.4635,-8.4791,-8.4852,-8.498,-8.487,-8.501,-8.5104,-8.5038,-8.5216,-8.5253,-8.534,-8.5543,-8.5635,-8.5581,-8.5951,-8.5837,-8.5855,-8.5865,-8.5978,-8.6016,-8.6049,-8.5608,-8.5606,-8.5604,0,0,-8.4744,-8.4805,-8.4965,-8.5028,-8.5122,-8.5141,-8.518,-8.5263,-8.5286,-8.5464,-8.5417,-8.5527,-8.5727,-8.5791,-8.585,-8.6124,-8.6081,-8.6159,-8.6301,-8.6417,-8.6448,-8.6476,-8.6574,-8.6609,-8.6181,-8.6181,-8.6181,0,-8.4858,-8.5052,-8.505,-8.5195,-8.5264,-8.5212,-8.5373,-8.5433,-8.5558,-8.5606,-8.5544,-8.5794,-8.5848,-8.6065,-8.6132,-8.6181,-8.6223,-8.615,-8.6444,-8.6472,-8.6498,-8.6591,-8.6628,-8.619,-8.6189,-8.6188,-8.6187,0,-8.5187,-8.5322,-8.5439,-8.5564,-8.5646,-8.5797,-8.5816,-8.5899,-8.5885,-8.591,-8.609,-8.6154,-8.6275,-8.6326,-8.6312,-8.6541,-8.6505,-8.6445,-8.6334,-8.6545,-8.6632,-8.6668,-8.6203,-8.62,-8.6197,-8.6195,0,0,-8.5512,-8.5633,-8.5677,-8.5732,-8.5831,-8.5934,-8.6082,-8.6203,-8.6274,-8.636,-8.6483,-8.6653,-8.6598,-8.6664,-8.6657,-8.6759,-8.6971,-8.6685,-8.6687,-8.6737,-8.7226,-8.7272,-8.7313,-8.6943,-8.695,-8.6955,-8.7219,0,-8.5771,-8.6035,-8.6037,-8.6277,-8.6401,-8.6353,-8.6481,-8.6554,-8.6581,-8.6687,-8.6715,-8.6836,-8.6754,-8.6793,-8.6892,-8.6925,-8.707,-8.6905,-8.7056,-8.7062,-8.7038,-8.7359,-8.7408,-8.7654,-8.7253,-8.7259,-8.7263,0,-8.6109,-8.621,-8.6464,-8.6545,-8.6597,-8.6713,-8.6823,-8.6926,-8.7007,-8.7019,-8.7094,-8.7071,-8.7218,-8.7103,-8.7306,-8.7194,-8.7255,-8.7281,-8.729,-8.7305,-8.7176,-8.7383,-8.7732,-8.777,-8.7317,-8.7312,-8.7308,0,-8.6322,-8.652,-8.6697,-8.6746,-8.6845,-8.6927,-8.6972,-8.7046,-8.7118,-8.7213,-8.726,-8.737,-8.7431,-8.7515,-8.7522,-8.7437,-8.7726,-8.7611,-8.7739,-8.7739,-8.7803,-8.7799,-8.8168,-8.7841,-8.784,-8.784,-8.7839,0,-8.6612,-8.6769,-8.6794,-8.6904,-8.7078,-8.7077,-8.7248,-8.7285,-8.7351,-8.7465,-8.7427,-8.7534,-8.7536,-8.7644,-8.7649,-8.7816,-8.7843,-8.7856,-8.7856,-8.786,-8.7859,-8.7901,-8.7884,-8.7849,-8.7847,-8.7845,-8.7844,0,-8.6879,-8.6902,-8.7093,-8.7171,-8.7194,-8.7319,-8.7384,-8.7487,-8.7509,-8.7654,-8.7687,-8.7722,-8.7847,-8.7862,-8.8007,-8.801,-8.8212,-8.8192,-8.8186,-8.8183,-8.831,-8.8298,-8.8719,-8.8774,-8.8411,-8.8415,-8.8417,0,-8.7063,-8.7184,-8.7275,-8.735,-8.7399,-8.752,-8.7594,-8.7596,-8.7674,-8.7775,-8.7866,-8.7988,-8.8086,-8.8288,-8.8324,-8.8435,-8.8418,-8.8558,-8.8435,-8.8435,-8.8421,-8.8414,-8.8426,-8.8583,-8.8587,-8.859,-8.8593,0,-8.7388,-8.7393,-8.7503,-8.7617,-8.7707,-8.7796,-8.7879,-8.7941,-8.7954,-8.8043,-8.8172,-8.8248,-8.8398,-8.8519,-8.8628,-8.8669,-8.8634,-8.8631,-8.8666,-8.8673,-8.8664,-8.8671,-8.8252,-8.8622,-8.8619,-8.8617,-8.8615,-8.8614,-8.7619,-8.7724,-8.7805,-8.7928,-8.7991,-8.807,-8.8171,-8.8206,-8.8315,-8.8439,-8.8432,-8.8574,-8.8649,-8.8792,-8.8842,-8.8952,-8.8905,-8.8956,-8.8969,-8.8982,-8.8996,-8.8646,-8.8971,-8.897,-8.897,-8.8969,-8.8968,0,-8.7942,-8.7992,-8.8105,-8.8224,-8.832,-8.8279,-8.8369,-8.8451,-8.8578,-8.8653,-8.875,-8.8898,-8.9015,-8.9061,-8.9174,-8.9253,-8.9239,-8.9283,-8.9277,-8.9288,-8.9031,-8.8989,-8.9292,-8.9292,-8.9292,-8.9292,-8.9292,-8.9292,-8.8122,-8.8297,-8.8312,-8.8516,-8.8564,-8.8705,-8.876,-8.8831,-8.8891,-8.9058,-8.9157,-8.9186,-8.9248,-8.9366,-8.9471,-8.9481,-8.9524,-8.9576,-8.9579,-8.9338,-8.9306,-8.9274,-8.9235,-8.9585,-8.9586,-8.9827,-8.9829,-8.9831]}]]